Weather observations for the past three days for
Zanesville Municipal Airport
Imperial (Metric)
Date Time (edt) Wind (mph) Vis. (mi.) Weather Sky Cond. Temperature (ºF) Relative Humidity Wind Chill (°F) Heat Index (°F) Pressure Precipitation (in)
Air Dwpt 6 hour altimeter (in) sea level (mb) 1 hr 3 hr 6 hr
Max. Min.
20 09:53 Vrbl 3 10.00 Fair CLR 78.1 69.1 74% 80 30.33 1026.4
20 08:53 SE 3 10.00 Fair CLR 75.9 69.1 79% 77 30.33 1026.3
20 07:53 SE 3 10.00 Fair CLR 73 69.1 73 68 87% 30.33 1026.2
20 06:53 Calm 6.00 Fog/Mist CLR 70 68 93% 30.32 1025.9
20 05:53 Calm 6.00 Fog/Mist CLR 68 66 93% 30.31 1025.6
20 04:53 Calm 9.00 Fair CLR 69.1 66.9 93% 30.3 1025.4
20 03:53 E 3 7.00 Fair CLR 70 68 93% 30.3 1025.3
20 02:53 Calm 9.00 Fair CLR 72 70 94% 30.3 1025.3
20 01:53 Calm 9.00 Fair CLR 72 70 82.9 71.1 94% 30.3 1025.2
20 00:53 Calm 10.00 Fair CLR 73 70 90% 30.29 1025.1
19 23:53 Calm 9.00 Fair CLR 73 70 90% 30.3 1025.2
19 22:53 SE 3 10.00 Fair CLR 75 71.1 88% 75 30.3 1025.2
19 21:53 Calm 10.00 Fair CLR 78.1 72 82% 80 30.29 1024.7
19 20:53 Calm 10.00 Fair CLR 78.1 71.1 79% 80 30.27 1024.1
19 19:53 Calm 10.00 Fair CLR 82 72 87.1 82 72% 87 30.26 1024.0
19 18:53 Calm 10.00 Fair CLR 86 69.1 57% 90 30.27 1024.1
19 17:53 SW 3 10.00 A Few Clouds FEW035 84.9 71.1 63% 90 30.27 1024.2
19 16:53 S 3 10.00 Fair CLR 86 70 59% 91 30.28 1024.4
19 15:53 S 7 10.00 Fair CLR 86 70 59% 91 30.29 1024.7
19 14:53 SW 3 10.00 Fair CLR 86 70 59% 91 30.29 1024.9
19 13:53 SW 7 10.00 Fair CLR 86 70 87.1 77 59% 91 30.3 1025.3
19 12:53 S 7 10.00 Fair CLR 84 70 63% 88 30.31 1025.5
19 11:53 S 9 10.00 Fair CLR 84 70 63% 88 30.31 1025.4
19 10:53 S 9 10.00 Fair CLR 82.9 71.1 67% 88 30.32 1025.7
19 09:53 S 9 10.00 Fair CLR 81 70 69% 84 30.31 1025.6
19 08:53 S 6 10.00 Fair CLR 79 70 74% 82 30.31 1025.3
19 07:53 SE 3 10.00 Fair CLR 75.9 70 77 73 82% 77 30.29 1024.8
19 06:53 Calm 10.00 Fair CLR 73.9 70 88% 30.26 1023.9
19 05:53 Calm 10.00 Fair CLR 73.9 70 88% 30.25 1023.3
19 04:53 Calm 10.00 Fair CLR 75 69.1 82% 75 30.22 0.0
19 03:53 SE 3 10.00 Fair CLR 75 69.1 82% 75 30.22 1022.2
19 02:53 E 6 10.00 Fair CLR 75 70 84% 75 30.21 1021.9
19 01:53 Calm 10.00 Fair CLR 77 71.1 88 77 82% 79 30.2 1021.7
19 00:53 SE 3 10.00 Fair CLR 78.1 71.1 79% 80 30.2 1021.6
18 23:53 S 3 10.00 Fair CLR 78.1 72 82% 80 30.19 1021.3
18 22:53 SE 8 10.00 Fair CLR 80.1 75 85% 85 30.18 1021.1
18 21:53 Calm 10.00 Fair CLR 82.9 75 77% 90 30.18 1021.2
18 20:53 Calm 10.00 Fair CLR 86 73.9 67% 94 30.17 1020.7
18 19:53 SW 3 10.00 Fair CLR 88 73.9 93 88 63% 97 30.16 1020.3
18 18:53 W 5 10.00 Fair CLR 90 73 58% 98 30.15 1020.0
18 17:53 S 7 10.00 Fair CLR 91 73 56% 100 30.16 1020.2
18 15:53 S 7 10.00 Fair CLR 93 73 52% 102 30.16 1020.4
18 14:53 S 8 10.00 Fair CLR 91.9 73 54% 101 30.17 1020.8
18 13:53 SE 5 10.00 Mostly Cloudy FEW040 BKN055 90 72 91.9 73.9 56% 97 30.19 1021.4
18 12:53 S 5 10.00 Fair CLR 90 73 58% 98 30.2 1021.7
18 11:53 W 3 10.00 Fair CLR 86 73 65% 93 30.2 1021.8
18 10:53 Vrbl 5 10.00 Fair CLR 82.9 73.9 74% 89 30.2 1021.9
18 09:53 Calm 10.00 Fair CLR 81 72 74% 85 30.19 1021.8
18 07:53 Calm 10.00 Fair CLR 73.9 70 73.9 69.1 88% 30.18 0.0
18 06:53 Calm 10.00 Fair CLR 72 69.1 91% 30.16 0.0
18 05:53 SE 3 10.00 Fair CLR 70 68 93% 30.15 0.0
18 04:53 Calm 10.00 Fair CLR 70 68 93% 30.13 0.0
18 03:53 Calm 9.00 Fair CLR 69.1 66.9 93% 30.12 1019.0
18 02:53 Calm 10.00 Fair CLR 70 66.9 90% 30.13 1019.4
18 01:53 Calm 10.00 Fair CLR 71.1 68 90% 30.13 1019.5
18 00:53 Calm 10.00 Fair CLR 70 68 93% 30.13 1019.5
17 23:53 Calm 10.00 Fair CLR 71.1 69.1 94% 30.12 1019.1
17 22:53 Calm 10.00 Fair CLR 71.1 69.1 94% 30.11 1018.9
17 21:53 S 5 10.00 NULL NULL 71.1 69.1 94% 30.1 1018.4
17 15:53 Calm 0.00 NULL NULL 95 70 44% 101 30.06 1017.1
17 14:53 S 10 10.00 Fair CLR 93.9 71.1 48% 101 30.07 1017.6
17 13:53 Calm 10.00 Fair CLR 93 71.1 93 73 49% 100 30.1 1018.3
17 12:53 S 8 10.00 A Few Clouds FEW040 91 72 54% 99 30.11 1018.9
17 11:53 Vrbl 3 10.00 Fair CLR 89.1 72 57% 96 30.12 1019.2
17 10:53 SW 8 10.00 Fair CLR 86 71.1 61% 92 30.12 1019.2
Date Time (edt) Wind (mph) Vis. (mi.) Weather Sky Cond. Air Dwpt Max. Min. Relative Humidity Wind Chill (°F) Heat Index (°F) altimeter (in) sea level (mb) 1 hr 3 hr 6 hr
6 hour
Temperature (ºF) Pressure Precipitation (in)